Location: Krasnoyarskiy Pitomnik
(51.1333°N, 71.6167°E)
Time: 10:23:25
(UTC+00:00)

NOSS 3-1 (A) - Pass Details

Date: 22 October 2021
Orbit: 721 x 1491 km, 63.4° (Epoch: 22 November)

Event Time Altitude Azimuth Distance (km) Brightness Sun altitude
Exits shadow 23:20:06 41° 241° (WSW) 1,818 4.4 -24.1°
Maximum altitude 23:20:07 41° 241° (WSW) 1,818 4.4 -24.1°
Drops below altitude 10° 23:28:05 10° 175° (S) 3,534 6.3 -22.9°
Sets 23:31:21 0° 169° (S) 4,562 7.0 -22.4°
